WetterOnline ( https://www.wetteronline.de )

Wetter aktuell Heide

Aktuelles Wetter: Heide/Elpersbüttel (5m)

6-stündlich | Neueste Meldungen
Ortszeit Temperatur Wetter
So, 09.05. 20:00 22.0° C bedeckt
So, 09.05. 14:00 21.0° C bedeckt
So, 09.05. 8:00 12.9° C wolkenlos
So, 09.05. 2:00 9.4° C bedeckt
Sa, 08.05. 20:00 9.8° C leichter Regen
Sa, 08.05. 14:00 11.6° C wolkig
Sa, 08.05. 8:00 7.3° C leicht bewölkt
Sa, 08.05. 2:00 6.7° C wolkenlos
Ortszeit Temperatur Wetter
Mo, 10.05. 1:30 16.9° C wolkig
Mo, 10.05. 1:20 16.9° C wolkig
Mo, 10.05. 1:10 17.7° C bedeckt
Mo, 10.05. 1:00 18.5° C bedeckt
Mo, 10.05. 0:50 18.5° C bedeckt
Mo, 10.05. 0:40 18.5° C bedeckt
Mo, 10.05. 0:30 19.6° C wolkig
Mo, 10.05. 0:00 19.6° C bewölkt
Ortszeit Relative Feuchte Sichtweite
So, 09.05. 20:00 57% 55 km
So, 09.05. 14:00 59% >70 km
So, 09.05. 8:00 76% 65 km
So, 09.05. 2:00 88% 45 km
Sa, 08.05. 20:00 76% 17 km
Sa, 08.05. 14:00 57% 45 km
Sa, 08.05. 8:00 90% 26 km
Sa, 08.05. 2:00 80% 35 km
Ortszeit Relative Feuchte Sichtweite
Mo, 10.05. 1:30 77% 60 km
Mo, 10.05. 1:20 77% -
Mo, 10.05. 1:10 73% -
Mo, 10.05. 1:00 70% 65 km
Mo, 10.05. 0:50 70% -
Mo, 10.05. 0:40 70% -
Mo, 10.05. 0:30 65% 55 km
Mo, 10.05. 0:00 66% 60 km
Ortszeit Niederschlagsmenge Niederschlagsart
So, 09.05. 20:00 0.6 l/m2 in 12 Std. Regen
So, 09.05. 14:00 0.0 l/m2 in 6 Std. -
So, 09.05. 8:00 8 l/m2 in 12 Std. -
So, 09.05. 2:00 8 l/m2 in 6 Std. Regen
Sa, 08.05. 20:00 0.2 l/m2 in 12 Std. Regen
Sa, 08.05. 14:00 0.0 l/m2 in 6 Std. -
Sa, 08.05. 8:00 0.1 l/m2 in 12 Std. -
Sa, 08.05. 2:00 0.1 l/m2 in 6 Std. Regen
Ortszeit Niederschlagsmenge Niederschlagsart
Mo, 10.05. 1:30 0.0 l/m2 in 1 Std. -
Mo, 10.05. 1:20 keine Meldung -
Mo, 10.05. 1:10 keine Meldung -
Mo, 10.05. 1:00 0.0 l/m2 in 1 Std. -
Mo, 10.05. 0:50 keine Meldung -
Mo, 10.05. 0:40 keine Meldung -
Mo, 10.05. 0:30 0.0 l/m2 in 1 Std. -
Mo, 10.05. 0:00 0.1 l/m2 in 1 Std. Regen
Ortszeit Stärke Spitze Richtung
km/h Bft. km/h Grad Sektor
So, 09.05. 20:00 7 2 36 130° SO
So, 09.05. 14:00 25 4 43 180° S
So, 09.05. 8:00 20 4 37 170° S
So, 09.05. 2:00 22 4 46 170° S
Sa, 08.05. 20:00 20 4 39 180° S
Sa, 08.05. 14:00 18 3 40 190° S
Sa, 08.05. 8:00 20 4 39 230° SW
Sa, 08.05. 2:00 30 5 56 270° W
Ortszeit Stärke Spitze Richtung
km/h Bft. km/h Grad Sektor
Mo, 10.05. 1:30 4 1 25 270° W
Mo, 10.05. 1:20 4 1 - 270° W
Mo, 10.05. 1:10 7 2 - 280° W
Mo, 10.05. 1:00 4 1 22 130° SO
Mo, 10.05. 0:50 4 1 - 130° SO
Mo, 10.05. 0:40 4 1 - 100° O
Mo, 10.05. 0:30 9 2 19 270° W
Mo, 10.05. 0:00 11 2 22 150° SO
Ortszeit Untergrenze Bedeckung Gattung
total tief tief mittel hoch
So, 09.05. 20:00 4200 m 8/8 8/8 - - -
So, 09.05. 14:00 3000 m 8/8 8/8 - - -
So, 09.05. 8:00 - 0/8 0/8 - - -
So, 09.05. 2:00 1110 m 8/8 8/8 - - -
Sa, 08.05. 20:00 1140 m 7/8 7/8 - - -
Sa, 08.05. 14:00 4500 m 8/8 8/8 - - -
Sa, 08.05. 8:00 720 m 1/8 4/8 - - -
Sa, 08.05. 2:00 - 0/8 0/8 - - -
Ortszeit Bedeckungsgrad in Achtel und Wolkenuntergrenze
Mo, 10.05. 1:30 2(2100m) 3(3300m) 8(6300m)
Mo, 10.05. 1:20 2(2100m) 3(3300m) 8(6300m)
Mo, 10.05. 1:10 3(3300m) 3(3900m) 8(6300m)
Mo, 10.05. 1:00 7(3000m) 8(6600m) 8(7200m)
Mo, 10.05. 0:50 7(3000m) 8(6600m) 8(7200m)
Mo, 10.05. 0:40 8(3000m) 8(3900m) 8(7200m)
Mo, 10.05. 0:30 1(2400m) 6(3000m) 7(7500m)
Mo, 10.05. 0:00 6(2400m) 7(3000m) 7(4200m)
Ortszeit Luftdruck NN (hPa) Tendenz (hPa in 3 Std.)
So, 09.05. 20:00 1000 - 2,6
So, 09.05. 14:00 1004 - 0,5
So, 09.05. 8:00 1005 - 0,1
So, 09.05. 2:00 1006 - 2,2
Sa, 08.05. 20:00 1011 - 1,3
Sa, 08.05. 14:00 1015 - 1,7
Sa, 08.05. 8:00 1016 + 0,3
Sa, 08.05. 2:00 1016 + 0,8
Ortszeit Luftdruck NN (hPa) Tendenz (hPa in 3 Std.)
Mo, 10.05. 1:30 1000 0,0
Mo, 10.05. 1:20 1000 keine Meldung
Mo, 10.05. 1:10 1000 keine Meldung
Mo, 10.05. 1:00 1000 - 0,4
Mo, 10.05. 0:50 1000 keine Meldung
Mo, 10.05. 0:40 1000 keine Meldung
Mo, 10.05. 0:30 1001 + 0,4
Mo, 10.05. 0:00 1000 + 0,1
Ortszeit Schneehöhe (cm)
So, 09.05. 20:00 0
So, 09.05. 14:00 0
So, 09.05. 8:00 0
So, 09.05. 2:00 0
Sa, 08.05. 20:00 0
Sa, 08.05. 14:00 0
Sa, 08.05. 8:00 0
Sa, 08.05. 2:00 0
Ortszeit Schneehöhe (cm)
Mo, 10.05. 1:30 0
Mo, 10.05. 1:20 0
Mo, 10.05. 1:10 0
Mo, 10.05. 1:00 0
Mo, 10.05. 0:50 0
Mo, 10.05. 0:40 0
Mo, 10.05. 0:30 0
Mo, 10.05. 0:00 0
Link zu dieser Seite / Seite empfehlen

Das Wetter in ...